Date,TemperatureHighF,TemperatureAvgF,TemperatureLowF,DewpointHighF,DewpointAvgF,DewpointLowF,HumidityHigh,HumidityAvg,HumidityLow,PressureMaxIn,PressureMinIn,WindSpeedMaxMPH,WindSpeedAvgMPH,GustSpeedMaxMPH,PrecipitationSumIn
2013-4-1,43.2,33.4,26.9,32.6,17.6,11.6,77,53,33,30.14,29.71,8,4,15,0.00
2013-4-2,42.1,29.8,23.3,17.7,14.2,11.8,76,54,31,30.29,30.13,5,2,10,0.00
2013-4-3,42.7,31.9,21.0,20.3,14.2,10.4,77,51,28,30.47,30.29,10,2,14,0.00
2013-4-4,56.2,39.2,24.2,21.2,17.1,12.4,76,45,19,30.41,29.99,6,2,11,0.00
2013-4-5,43.9,40.3,36.5,31.2,23.9,19.1,79,53,38,30.14,29.97,7,2,9,0.00
2013-4-8,66.5,52.2,42.1,57.2,45.5,35.7,92,79,59,29.99,29.72,8,4,11,0.16
2013-4-9,55.1,47.0,42.8,47.0,43.1,40.6,93,87,71,30.11,29.90,7,3,10,0.00
2013-4-10,48.2,42.9,39.0,45.9,41.5,38.1,97,95,90,30.01,29.88,9,5,12,0.46
2013-4-11,39.2,37.6,36.0,38.4,36.5,34.5,97,96,93,30.00,29.65,12,8,21,1.34
2013-4-12,43.2,38.7,35.7,39.8,36.0,32.8,98,90,74,29.81,29.55,8,3,12,0.40
2013-4-13,42.3,38.3,36.7,38.0,33.7,30.7,93,84,68,29.89,29.81,6,3,9,0.01
2013-4-14,47.8,44.5,40.7,36.7,35.2,34.0,80,70,61,30.10,29.98,10,6,15,0.02
2013-4-15,68.9,54.6,35.9,54.9,45.2,33.3,91,72,54,30.00,29.89,9,3,14,0.00
2013-4-16,63.0,57.5,47.2,53.6,41.7,30.1,89,57,35,30.23,29.88,8,2,10,0.35
2013-4-17,55.6,47.4,41.0,42.0,34.0,31.1,71,60,48,30.35,30.17,10,6,16,0.00
2013-4-18,78.0,67.9,52.5,66.2,60.6,50.5,93,78,64,29.78,29.65,9,6,13,0.04
2013-4-19,41.8,39.7,37.1,33.1,30.9,28.6,76,71,65,29.78,29.54,9,6,17,0.33
2013-4-20,39.0,33.9,31.0,31.5,24.3,17.7,92,68,49,30.24,29.78,7,4,13,0.01
2013-4-21,45.9,42.2,35.0,29.4,25.6,20.7,68,52,42,30.67,30.52,8,5,13,0.00
2013-4-22,60.8,46.0,29.7,36.9,29.6,18.2,93,58,21,30.52,30.23,7,2,12,0.00
2013-4-23,71.1,54.5,36.6,54.1,41.7,33.3,97,66,36,30.23,29.81,8,2,20,0.25
2013-4-24,55.3,40.7,34.8,54.4,38.1,27.8,97,90,72,30.17,29.74,7,3,11,0.43
2013-4-25,52.1,39.9,30.4,41.1,31.8,27.0,94,75,43,30.38,30.15,5,2,11,0.16
2013-4-26,59.2,46.1,28.9,37.9,33.5,27.0,93,65,38,30.45,30.37,7,2,12,0.00
2013-4-27,67.8,52.8,33.1,42.2,36.2,30.0,97,60,26,30.40,30.13,7,2,9,0.00
2013-4-28,54.0,52.0,48.9,53.4,45.9,33.1,98,82,52,30.13,29.85,6,2,8,0.27
2013-4-29,70.4,59.3,50.0,55.4,53.3,49.7,99,82,55,29.96,29.85,4,1,9,0.04
2013-4-30,71.7,61.8,52.7,56.7,54.4,51.2,95,78,58,30.08,29.94,9,3,14,0.00